DW2513 Weather Reports


time (UTC)temp
C
wind
direction
speed
KPH
gust
KPH
rain 1hr
cm
rain 24hr
cm
rain mn
cm
humidity
%
barometer
mb
20260510170305 15 194 0.0 1.6 0.10 0.61 0.10 68 1008.0
20260510163804 16 196 0.0 0.0 0.00 0.56 0.00 60 1007.9
20260510163305 16 167 0.0 0.0 0.00 0.58 0.00 63 1007.9
20260510162804 16 167 0.0 0.0 0.00 0.58 0.00 65 1007.9
20260510161804 16 167 0.0 0.0 0.00 0.61 0.00 62 1007.9
20260510161305 16 167 0.0 0.0 0.00 0.64 0.00 62 1007.9
20260510155306 16 241 0.0 3.2 0.00 0.69 0.00 60 1007.9
20260510154804 16 208 1.6 9.7 0.00 0.71 0.00 61 1007.9
20260510153804 15 178 1.6 8.0 0.00 0.76 0.00 62 1007.8
20260510153304 15 144 0.0 0.0 0.00 0.76 0.00 63 1007.8
20260510151304 15 86 0.0 0.0 0.00 0.79 0.00 64 1007.8
20260510150804 15 65 1.6 8.0 0.00 0.81 0.00 65 1007.8
20260510150304 14 221 0.0 1.6 0.00 0.81 0.00 64 1007.8
20260510145804 14 221 0.0 0.0 0.00 0.81 0.00 65 1007.8
20260510145306 14 222 0.0 0.0 0.00 0.81 0.00 65 1007.8
20260510144304 14 250 0.0 3.2 0.00 0.84 0.00 65 1007.8
20260510141804 13 175 0.0 1.6 0.00 0.84 0.00 69 1007.8
20260510141305 13 175 0.0 0.0 0.00 0.84 0.00 69 1007.8
20260510140304 13 164 0.0 0.0 0.00 0.84 0.00 70 1007.9
20260510134804 12 165 0.0 0.0 0.00 0.84 0.00 73 1007.9
20260510133804 12 165 0.0 0.0 0.00 0.84 0.00 75 1008.0
20260510133304 12 165 0.0 1.6 0.00 0.84 0.00 74 1008.0
20260510132804 12 165 0.0 1.6 0.00 0.84 0.00 74 1007.9
20260510132306 12 143 0.0 4.8 0.00 0.84 0.00 75 1007.9
20260510124805 11 242 0.0 0.0 0.00 0.84 0.00 81 1007.9
20260510124305 11 217 0.0 3.2 0.00 0.84 0.00 81 1007.9
20260510123804 11 217 0.0 0.0 0.00 0.84 0.00 82 1007.9
20260510123304 11 230 0.0 0.0 0.00 0.84 0.00 83 1007.9
20260510121804 11 272 0.0 0.0 0.00 0.84 0.00 84 1007.9
20260510115306 10 199 0.0 0.0 0.00 0.84 0.00 85 1007.8
20260510112805 10 199 0.0 1.6 0.00 0.84 0.00 87 1007.8
20260510112306 10 199 0.0 0.0 0.00 0.84 0.00 87 1007.8
20260510110804 10 199 0.0 3.2 0.00 0.84 0.00 88 1007.5
20260510105804 9 133 0.0 1.6 0.00 0.84 0.00 87 1007.0
20260510104305 9 133 0.0 0.0 0.00 0.84 0.00 87 1007.0
20260510102804 8 133 0.0 0.0 0.00 0.84 0.00 86 1006.8
20260510101305 8 133 0.0 0.0 0.00 0.84 0.00 86 1005.9
20260510100804 8 133 0.0 0.0 0.00 0.84 0.00 86 1005.9
20260510100305 8 133 0.0 0.0 0.00 0.84 0.00 86 1005.9
20260510095804 8 133 0.0 0.0 0.00 0.84 0.00 86 1005.9
20260510095306 8 133 0.0 0.0 0.00 0.84 0.00 86 1005.9
20260510094304 8 133 0.0 0.0 0.00 0.84 0.00 86 1005.9
20260510093804 8 133 0.0 0.0 0.00 0.84 0.00 86 1005.9
20260510092805 8 133 0.0 0.0 0.00 0.84 0.00 85 1005.9
20260510090304 8 133 0.0 0.0 0.00 0.84 0.00 85 1006.3
20260510083304 8 133 0.0 0.0 0.00 0.84 0.00 85 1006.3
20260510082805 8 133 0.0 0.0 0.00 0.84 0.00 85 1006.3
20260510081804 8 133 0.0 0.0 0.00 0.84 0.00 85 1006.3
20260510081305 8 133 0.0 0.0 0.00 0.84 0.00 85 1006.3
20260510080304 8 133 0.0 0.0 0.00 0.84 0.00 85 1006.3
20260510075306 8 133 0.0 0.0 0.00 0.84 0.00 85 1006.3
20260510074305 8 133 0.0 0.0 0.00 0.84 0.00 85 1006.3
20260510072306 8 133 0.0 0.0 0.00 0.84 0.00 85 1006.3
20260510071304 8 133 0.0 3.2 0.00 0.84 0.00 85 1006.3
20260510070804 8 133 1.6 4.8 0.00 0.84 0.00 85 1006.3
20260510070305 8 133 0.0 0.0 0.00 0.84 0.00 85 1006.3
20260510064804 8 133 0.0 0.0 0.00 0.84 0.00 84 1006.7
20260510063805 8 133 0.0 0.0 0.00 0.84 0.00 84 1006.8
20260510054304 8 133 0.0 0.0 0.00 0.84 0.00 83 1006.9
20260510053804 8 133 0.0 0.0 0.00 0.84 0.00 83 1006.9
20260510052804 8 133 0.0 0.0 0.00 0.84 0.00 83 1007.1
20260510051305 8 133 0.0 0.0 0.00 0.84 0.00 82 1007.1
20260510050804 8 133 0.0 0.0 0.00 0.84 0.00 82 1007.1
20260510044804 8 133 0.0 0.0 0.00 0.84 0.00 82 1007.1
20260510044305 8 133 0.0 0.0 0.00 0.84 0.00 81 1007.1
20260510042804 8 133 0.0 0.0 0.00 0.84 0.00 81 1007.1
20260510042306 8 133 0.0 4.8 0.00 0.84 0.00 81 1007.1
20260510041804 8 133 0.0 0.0 0.00 0.84 0.00 81 1007.1
20260510041304 8 133 0.0 0.0 0.00 0.84 0.00 81 1007.1
20260510040821 8 133 0.0 0.0 0.00 0.84 0.00 81 1007.1
20260510040305 8 133 0.0 0.0 0.00 0.84 0.00 80 1007.1
20260510035804 8 133 0.0 0.0 0.00 0.84 0.84 80 1007.1
20260510035306 8 133 0.0 0.0 0.00 0.84 0.84 80 1007.1
20260510034804 8 133 0.0 0.0 0.00 0.84 0.84 80 1007.1
20260510034305 8 133 0.0 0.0 0.00 0.84 0.84 80 1007.1
20260510033304 8 133 0.0 0.0 0.00 0.84 0.84 80 1007.1
20260510032805 8 133 0.0 0.0 0.00 0.84 0.84 80 1007.1
20260510032306 8 128 0.0 8.0 0.00 0.84 0.84 80 1007.2
20260510031804 8 128 0.0 3.2 0.00 0.84 0.84 79 1007.2
20260510031304 8 128 0.0 0.0 0.00 0.84 0.84 79 1007.2
20260510030305 8 157 0.0 0.0 0.00 0.84 0.84 79 1007.3
20260510024804 8 157 3.2 9.7 0.00 0.84 0.84 79 1007.3
20260510024304 8 155 4.8 8.0 0.00 0.84 0.84 80 1007.3
20260510023304 8 151 3.2 4.8 0.00 0.84 0.84 80 1007.4
20260510022804 8 152 0.0 3.2 0.00 0.84 0.84 80 1007.4
20260510021804 8 157 0.0 3.2 0.00 0.84 0.84 80 1007.5
20260510020804 8 152 0.0 0.0 0.00 0.84 0.84 80 1007.4
20260510020304 8 153 0.0 4.8 0.00 0.84 0.84 80 1007.4
20260510015306 8 119 0.0 0.0 0.00 0.84 0.84 80 1007.5
20260510014805 8 119 0.0 0.0 0.00 0.84 0.84 80 1007.5
20260510013804 8 118 0.0 9.7 0.00 0.84 0.84 80 1007.5
20260510012307 8 153 0.0 4.8 0.00 0.84 0.84 80 1007.5
20260510011306 8 150 0.0 0.0 0.00 0.84 0.84 80 1007.5
20260510010804 8 150 0.0 4.8 0.00 0.84 0.84 80 1007.5
20260510005804 8 148 0.0 0.0 0.00 0.84 0.84 80 1007.5
20260510005306 8 144 0.0 0.0 0.00 0.84 0.84 80 1007.5
20260510003304 8 144 0.0 0.0 0.00 0.84 0.84 80 1007.3
20260510002804 8 136 1.6 16.1 0.00 0.84 0.84 80 1007.3
20260510002306 8 163 0.0 0.0 0.00 0.84 0.84 80 1007.3
20260510001304 8 163 0.0 0.0 0.00 0.84 0.84 80 1006.9
20260510000804 8 163 1.6 4.8 0.00 0.84 0.84 81 1006.9
20260509235804 8 161 3.2 4.8 0.00 0.84 0.84 81 1006.9
20260509234805 8 161 0.0 4.8 0.00 0.84 0.84 81 1006.9
20260509233805 8 144 0.0 0.0 0.00 0.84 0.84 81 1006.9
20260509233305 8 144 0.0 0.0 0.00 0.84 0.84 81 1006.9
20260509232306 8 143 0.0 0.0 0.00 0.84 0.84 82 1006.9
20260509231804 8 144 0.0 0.0 0.00 0.84 0.84 82 1006.9
20260509230804 8 126 0.0 3.2 0.00 0.84 0.84 83 1006.9
20260509230304 8 126 0.0 3.2 0.00 0.84 0.84 83 1006.9
20260509224804 8 201 0.0 4.8 0.00 0.84 0.84 84 1006.9
20260509224305 8 228 0.0 3.2 0.00 0.84 0.84 84 1007.0
20260509223305 8 229 0.0 0.0 0.00 0.84 0.84 85 1007.0
20260509220804 8 229 0.0 0.0 0.00 0.84 0.84 85 1007.0
20260509215805 8 229 0.0 0.0 0.00 0.84 0.84 84 1007.3
20260509214805 8 229 0.0 1.6 0.00 0.84 0.84 84 1007.3
20260509214304 8 229 0.0 0.0 0.03 0.84 0.84 84 1007.4
20260509211805 8 244 0.0 0.0 0.05 0.84 0.84 84 1007.6
20260509210805 8 244 0.0 0.0 0.05 0.84 0.84 84 1007.6
20260509210304 8 244 0.0 0.0 0.08 0.84 0.84 84 1007.6
20260509204305 8 244 0.0 0.0 0.10 0.81 0.81 85 1007.6
20260509203804 8 244 0.0 0.0 0.13 0.81 0.81 85 1007.6
20260509200804 8 319 0.0 0.0 0.15 0.79 0.79 86 1007.8
20260509200304 8 319 0.0 0.0 0.13 0.76 0.76 86 1007.8
20260509195804 8 319 0.0 0.0 0.13 0.76 0.76 85 1007.8
20260509194304 8 319 0.0 0.0 0.13 0.71 0.71 85 1007.8
20260509193304 8 319 0.0 0.0 0.13 0.69 0.69 85 1008.4
20260509191804 8 319 0.0 0.0 0.13 0.66 0.66 85 1008.4
20260509190304 8 319 0.0 0.0 0.15 0.64 0.64 85 1008.4
20260509184304 7 321 0.0 0.0 0.15 0.58 0.58 84 1008.4
20260509182804 7 321 0.0 0.0 0.15 0.56 0.56 84 1008.4
20260509180304 7 321 0.0 0.0 0.15 0.48 0.48 83 1008.5
20260509173305 7 321 0.0 0.0 0.15 0.41 0.41 82 1009.0